Weather History for KHBG - April, 2012

Change the Weather History Date:

Saturday, April 28, 2012

  Actual Average Record
Temperature  
Mean Temperature 72 °F 69 °F  
Max Temperature 85 °F 81 °F 91 °F (2002)
Min Temperature 59 °F 56 °F 43 °F (1992)
Degree Days  
Heating Degree Days 0 1  
Month to date heating degree days 25 81  
Since 1 July heating degree days 1398 1976  
Cooling Degree Days 7 5  
Month to date cooling degree days 110 82  
Year to date cooling degree days 298 130  
Growing Degree Days 22 (Base 50)    
Moisture  
Dew Point 59 °F    
Average Humidity 67    
Maximum Humidity 93    
Minimum Humidity 40    
Precipitation  
Precipitation 0.00 in 0.13 in 4.73 in (1962)
Month to date precipitation 3.20 4.69  
Year to date precipitation 25.37 21.32  
Sea Level Pressure  
Sea Level Pressure 30.04 in    
Wind  
Wind Speed 6 mph (South)    
Max Wind Speed 17 mph    
Max Gust Speed 23 mph    
Visibility 10 miles    
Events Rain    
T = Trace of Precipitation, MM = Missing Value Source: NWS Daily Summary

Daily Weather History Graph

Daily Weather History Graph

Search for Another Location

Airport or City:

Trip Planner

Search our weather history database for the weather conditions in past years. The results will help you decide how hot, cold, wet, or windy it might be!

Date:

Astronomy

Apr. 28, 2012 Rise Set
Actual Time 6:14 AM CDT 7:34 PM CDT
Civil Twilight 5:49 AM CDT 8:00 PM CDT
Nautical Twilight 5:18 AM CDT 8:30 PM CDT
Astronomical Twilight 4:46 AM CDT 9:02 PM CDT
Moon 11:55 AM CDT (4/28) 12:56 AM CDT (4/28)
Length of Visible Light 14h 11m
Length of Day
13h 20m
Waxing Crescent, 43% of the Moon is Illuminated
Apr 28
Waxing Crescent
Apr 29
First Quarter
May 5
Full
May 12
Last Quarter
May 20
New

Hourly Weather History & Observations

Time (CDT) Temp. Heat Index Dew Point Humidity Pressure Visibility Wind Dir Wind Speed Gust Speed Precip Events Conditions
12:53 AM 66.0 °F - 62.1 °F 87% 30.02 in 10.0 mi Calm Calm - 0.00 in   Clear
2:53 AM 62.1 °F - 57.9 °F 86% 30.01 in 10.0 mi Calm Calm - N/A   Clear
3:53 AM 60.1 °F - 57.9 °F 93% 30.02 in 10.0 mi Calm Calm - N/A   Clear
4:35 AM 60.8 °F - 57.2 °F 88% 30.03 in 10.0 mi Calm Calm - N/A   Scattered Clouds
4:44 AM 60.8 °F - 55.4 °F 82% 30.03 in 10.0 mi Calm Calm - N/A   Mostly Cloudy
4:53 AM 60.1 °F - 57.0 °F 90% 30.03 in 10.0 mi Calm Calm - N/A   Mostly Cloudy
5:09 AM 60.8 °F - 57.2 °F 88% 30.03 in 10.0 mi Calm Calm - N/A   Overcast
5:53 AM 60.1 °F - 57.9 °F 93% 30.03 in 10.0 mi Calm Calm - N/A   Overcast
6:53 AM 60.1 °F - 57.9 °F 93% 30.05 in 10.0 mi Calm Calm - N/A   Overcast
7:53 AM 62.1 °F - 60.1 °F 93% 30.07 in 10.0 mi Calm Calm - N/A   Overcast
8:40 AM 64.4 °F - 62.6 °F 94% 30.07 in 10.0 mi Calm Calm - N/A   Unknown
8:53 AM 64.9 °F - 63.0 °F 93% 30.07 in 10.0 mi ENE 3.5 mph - N/A   Unknown
9:10 AM 66.2 °F - 64.4 °F 94% 30.08 in 10.0 mi Calm Calm - N/A   Scattered Clouds
9:53 AM 77.0 °F - 61.0 °F 58% 30.06 in 10.0 mi South 9.2 mph - N/A   Partly Cloudy
10:53 AM 77.0 °F - 60.1 °F 56% 30.07 in 10.0 mi SSW 10.4 mph - N/A   Mostly Cloudy
11:53 AM 81.0 °F 81.3 °F 59.0 °F 47% 30.07 in 10.0 mi SSE 12.7 mph - N/A   Partly Cloudy
12:53 PM 82.0 °F 82.4 °F 60.1 °F 47% 30.06 in 10.0 mi South 9.2 mph - N/A   Scattered Clouds
1:53 PM 84.0 °F 83.8 °F 59.0 °F 43% 30.04 in 10.0 mi South 13.8 mph 18.4 mph N/A   Scattered Clouds
2:53 PM 84.0 °F 83.5 °F 57.9 °F 41% 30.02 in 10.0 mi SW 12.7 mph - N/A   Scattered Clouds
3:53 PM 82.9 °F 82.6 °F 57.9 °F 42% 30.01 in 10.0 mi South 11.5 mph - N/A   Partly Cloudy
4:53 PM 82.9 °F 82.6 °F 57.9 °F 42% 30.01 in 10.0 mi South 13.8 mph - N/A   Partly Cloudy
5:53 PM 81.0 °F 81.1 °F 57.9 °F 45% 30.01 in 10.0 mi South 9.2 mph - N/A   Clear
6:53 PM 79.0 °F - 59.0 °F 50% 30.00 in 10.0 mi SSE 10.4 mph - N/A   Clear
8:53 PM 72.0 °F - 60.1 °F 66% 30.04 in 10.0 mi South 4.6 mph - N/A   Clear
9:53 PM 69.1 °F - 60.1 °F 73% 30.05 in 10.0 mi South 4.6 mph - N/A   Clear
10:53 PM 68.0 °F - 61.0 °F 78% 30.06 in 10.0 mi Calm Calm - N/A   Clear
11:53 PM 66.0 °F - 60.1 °F 81% 30.06 in 10.0 mi Calm Calm - 0.00 in Rain Light Rain